• Join FlightAware (Why Join?)
  • Login
  • US Flag 
05:09AM EDT


 

Airport Tracker/Info


-or-


 

Live Flight TrackerFlight Track Log ✈ EJA929 ✈ 19-May-2013 ✈ KHOU - KIAD

Flight Track Log - Related Links

Times and Time Zones

All times are in EDT time to prevent confusion due to time zone crossing. See the EJA929 flight status page for this flight to view local times or setup timezone preferences in your user account.

Time Position Orientation Groundspeed Altitude Reporting Facility
EDT Latitude Longitude Course Direction KTS MPH feet Rate Location/Type
02:04PM 29.6331 -95.2631 83° East 150 173 900  Level Houston Center
02:04PM 29.6353 -95.2411 83° East 203 234 2,100 3,240 Climbing Houston Center
02:05PM 29.7019 -95.2378 North 265 305 5,600 3,360 Climbing Houston Center
02:06PM 29.7428 -95.2506 345° North 263 303 7,500 3,540 Climbing Houston Center
02:06PM 29.7800 -95.2619 345° North 291 335 9,300 3,540 Climbing Houston Center
02:07PM 29.8228 -95.2742 346° North 290 334 11,200 3,660 Climbing Houston Center
02:07PM 29.8575 -95.2839 346° North 312 359 12,700 3,420 Climbing Houston Center
02:08PM 29.9106 -95.2992 346° North 318 366 14,800 1,860 Climbing Houston Center
02:09PM 30.0086 -95.2706 14° North 371 427 16,000 960 Climbing Houston Center
02:10PM 30.1192 -95.2336 16° North 408 470 16,900 1,260 Climbing Houston Center
02:11PM 30.2275 -95.1969 16° North 406 467 18,700 1,920 Climbing Houston Center
02:12PM 30.3572 -95.1536 16° North 404 465 20,900 1,800 Climbing Houston Center
02:13PM 30.4539 -95.1203 17° North 401 461 22,500 1,740 Climbing Houston Center
02:15PM 30.6867 -95.0139 21° North 414 476 26,400 1,860 Climbing Houston Center
02:16PM 30.7900 -94.9492 28° Northeast 421 484 28,300 1,740 Climbing Houston Center
02:17PM 30.8944 -94.8842 28° Northeast 427 491 30,100 1,740 Climbing Houston Center
02:17PM 30.9411 -94.8558 28° Northeast 423 487 30,800 1,380 Climbing Fort Worth Center
02:19PM 31.0461 -94.7875 29° Northeast 423 487 32,300 1,500 Climbing Fort Worth Center
02:20PM 31.1822 -94.7011 28° Northeast 436 502 34,200 1,680 Climbing Fort Worth Center
02:21PM 31.2953 -94.6250 30° Northeast 456 525 35,700 1,380 Climbing Fort Worth Center
02:22PM 31.4022 -94.5511 31° Northeast 476 548 37,000 1,380 Climbing Fort Worth Center
02:23PM 31.5131 -94.4697 32° Northeast 481 554 38,500 960 Climbing Fort Worth Center
02:24PM 31.6172 -94.3739 38° Northeast 481 554 39,000 240 Climbing Fort Worth Center
02:25PM 31.7253 -94.2700 39° Northeast 487 560 39,000 180 Level Fort Worth Center
02:26PM 31.8375 -94.1636 39° Northeast 504 580 39,400 660 Climbing Fort Worth Center
02:27PM 31.9475 -94.0569 39° Northeast 510 587 40,400 780 Climbing Fort Worth Center
02:28PM 32.0553 -93.9547 39° Northeast 510 587 41,000 300 Climbing Fort Worth Center
02:29PM 32.1650 -93.8500 39° Northeast 510 587 41,000  Level Fort Worth Center
02:30PM 32.2847 -93.7300 40° Northeast 510 587 41,000  Level Fort Worth Center
02:31PM 32.3922 -93.6247 40° Northeast 510 587 41,000  Level Fort Worth Center
02:32PM 32.5058 -93.5139 39° Northeast 510 587 41,000  Level Fort Worth Center
02:33PM 32.6153 -93.4081 39° Northeast 510 587 41,000  Level Fort Worth Center
02:34PM 32.7244 -93.3019 39° Northeast 510 587 41,000  Level Fort Worth Center
02:35PM 32.8356 -93.1931 39° Northeast 510 587 41,000  Level Fort Worth Center
02:36PM 32.9469 -93.0864 39° Northeast 510 587 41,000  Level Fort Worth Center
02:37PM 33.0578 -92.9794 39° Northeast 510 587 41,000  Level Fort Worth Center
02:38PM 33.1667 -92.8697 40° Northeast 515 593 41,000  Level Fort Worth Center
02:39PM 33.3664 -92.6756 39° Northeast 515 593 41,000  Level Memphis Center
02:40PM 33.4769 -92.5664 39° Northeast 515 593 41,000  Level Memphis Center
02:41PM 33.5875 -92.4544 40° Northeast 515 593 41,000  Level Memphis Center
02:42PM 33.7000 -92.3422 40° Northeast 510 587 41,000  Level Memphis Center
02:43PM 33.8144 -92.2297 39° Northeast 510 587 41,000  Level Memphis Center
02:44PM 33.9244 -92.1169 40° Northeast 510 587 41,000  Level Memphis Center
02:45PM 34.0389 -92.0039 39° Northeast 515 593 41,000  Level Memphis Center
02:46PM 34.1447 -91.8881 42° Northeast 515 593 41,000  Level Memphis Center
02:47PM 34.2567 -91.7719 41° Northeast 521 600 41,000  Level Memphis Center
02:49PM 34.3582 -91.6644 41° Northeast  Level FlightAware Approximate
02:49PM 34.4675 -91.5564 41° Northeast 516 594 41,000  Level Memphis Center
02:50PM 34.5792 -91.4419 40° Northeast 516 594 41,000  Level Memphis Center
02:51PM 34.6906 -91.3269 40° Northeast 516 594 41,000  Level Memphis Center
02:52PM 34.8125 -91.1994 41° Northeast 521 600 41,000  Level Memphis Center
02:53PM 34.9239 -91.0839 40° Northeast 521 600 41,000  Level Memphis Center
02:54PM 35.0350 -90.9708 40° Northeast 521 600 41,000  Level Memphis Center
02:55PM 35.1442 -90.8572 40° Northeast 515 593 41,000  Level Memphis Center
02:56PM 35.2531 -90.7436 40° Northeast 515 593 41,000  Level Memphis Center
02:57PM 35.3617 -90.6269 41° Northeast 515 593 41,000  Level Memphis Center
02:58PM 35.4703 -90.5100 41° Northeast 515 593 41,000  Level Memphis Center
02:59PM 35.5664 -90.4081 41° Northeast 515 593 41,000  Level Memphis Center
03:00PM 35.6747 -90.2906 41° Northeast 515 593 41,000  Level Memphis Center
03:01PM 35.7853 -90.1675 42° Northeast 492 566 41,000  Level Memphis Center
03:02PM 35.8914 -90.0522 41° Northeast 497 572 41,000  Level Memphis Center
03:03PM 35.9972 -89.9336 42° Northeast 503 579 41,000  Level Memphis Center
03:04PM 36.1053 -89.8200 40° Northeast 503 579 41,000  Level Memphis Center
03:05PM 36.2131 -89.7036 41° Northeast 503 579 41,000  Level Memphis Center
03:06PM 36.3189 -89.5894 41° Northeast 503 579 41,000  Level Memphis Center
03:07PM 36.4286 -89.4697 41° Northeast 508 585 41,000  Level Memphis Center
03:08PM 36.5400 -89.3497 41° Northeast 521 600 41,000  Level Memphis Center
03:09PM 36.6475 -89.2267 43° Northeast 521 600 41,000  Level Memphis Center
03:10PM 36.7403 -89.1219 42° Northeast 515 593 41,000  Level Memphis Center
03:11PM 36.8472 -89.0036 42° Northeast 515 593 41,000  Level Memphis Center
03:12PM 36.9544 -88.8850 41° Northeast 515 593 41,000  Level Memphis Center
03:13PM 37.0592 -88.7661 42° Northeast 515 593 41,000  Level Memphis Center
03:14PM 37.1658 -88.6494 41° Northeast 515 593 41,000  Level Memphis Center
03:15PM 37.2706 -88.5272 43° Northeast 510 587 41,000  Level Memphis Center
03:16PM 37.3792 -88.4072 41° Northeast 510 587 41,000  Level Memphis Center
03:18PM 37.5128 -88.2428 44° Northeast 522 601 41,000  Level Indianapolis Center
03:19PM 37.6128 -88.1264 43° Northeast 521 600 41,000  Level Indianapolis Center
03:20PM 37.7058 -87.9847 50° Northeast 527 606 41,000  Level Indianapolis Center
03:21PM 37.7381 -87.8072 77° East 519 597 41,000  Level Indianapolis Center
03:22PM 37.7597 -87.6256 81° East 517 595 41,000  Level Indianapolis Center
03:23PM 37.7867 -87.4133 81° East 519 597 41,000  Level Indianapolis Center
03:24PM 37.8097 -87.2233 81° East 522 601 41,000  Level Indianapolis Center
03:25PM 37.8314 -87.0425 81° East 525 604 41,000  Level Indianapolis Center
03:26PM 37.8531 -86.8628 81° East 522 601 41,000  Level Indianapolis Center
03:27PM 37.8750 -86.6836 81° East 519 597 41,000  Level Indianapolis Center
03:28PM 37.8958 -86.5033 82° East 520 598 41,000  Level Indianapolis Center
03:29PM 37.9169 -86.3225 82° East 519 597 41,000  Level Indianapolis Center
03:30PM 37.9417 -86.1058 82° East 519 597 41,000  Level Indianapolis Center
03:31PM 37.9617 -85.9256 82° East 519 597 41,000  Level Indianapolis Center
03:32PM 37.9814 -85.7422 82° East 523 602 41,000  Level Indianapolis Center
03:33PM 38.0019 -85.5589 82° East 525 604 41,000  Level Indianapolis Center
03:34PM 38.0228 -85.3756 82° East 526 605 41,000  Level Indianapolis Center
03:35PM 38.0436 -85.1714 83° East 520 598 41,000  Level Indianapolis Center
03:36PM 38.0625 -84.9881 82° East 522 601 41,000  Level Indianapolis Center
03:37PM 38.0803 -84.8058 83° East 521 600 41,000  Level Indianapolis Center
03:38PM 38.0981 -84.6239 83° East 519 597 41,000  Level Indianapolis Center
03:39PM 38.1214 -84.4100 82° East 522 601 41,000  Level Indianapolis Center
03:40PM 38.1394 -84.2281 83° East 520 598 41,000  Level Indianapolis Center
03:41PM 38.1567 -84.0461 83° East 518 596 41,000  Level Indianapolis Center
03:42PM 38.1753 -83.8667 82° East 513 590 41,000  Level Indianapolis Center
03:43PM 38.1894 -83.6889 84° East 507 583 41,000  Level Indianapolis Center
03:45PM 38.2064 -83.5100 83° East 508 585 41,000  Level Indianapolis Center
03:46PM 38.2242 -83.3022 84° East 505 581 41,000  Level Indianapolis Center
03:47PM 38.2400 -83.1228 84° East 507 583 41,000  Level Indianapolis Center
03:48PM 38.2631 -82.9456 81° East 507 583 41,000  Level Indianapolis Center
03:49PM 38.2856 -82.7675 81° East 507 583 41,000  Level Indianapolis Center
03:50PM 38.2936 -82.5864 87° East 509 586 41,000  Level Indianapolis Center
03:51PM 38.2972 -82.4011 89° East 512 589 41,000  Level Indianapolis Center
03:52PM 38.3089 -82.2225 85° East 510 587 41,000 -60 Level Indianapolis Center
03:53PM 38.3203 -82.0469 85° East 502 578 40,900 -900 Descending Indianapolis Center
03:54PM 38.3342 -81.8361 85° East 503 579 39,200 -1,560 Descending Indianapolis Center
03:55PM 38.3425 -81.6600 86° East 504 580 37,700 -1,080 Descending Indianapolis Center
03:56PM 38.3483 -81.4833 88° East 505 581 37,000 -360 Descending Indianapolis Center
03:57PM 38.3492 -81.3014 90° East 518 596 37,000  Level Indianapolis Center
03:58PM 38.3358 -81.0828 94° East 521 600 37,000  Level Indianapolis Center
03:59PM 38.3253 -80.9383 95° East 516 594 37,000  Level Washington Center
04:00PM 38.3122 -80.7575 95° East 516 594 37,000  Level Washington Center
04:01PM 38.3089 -80.5931 91° East 522 601 37,000  Level Washington Center
04:02PM 38.3122 -80.4106 89° East 522 601 37,000 -360 Level Washington Center
04:03PM 38.3442 -80.2353 77° East 513 590 36,400 -1,620 Descending Washington Center
04:04PM 38.3778 -80.0600 76° East 513 590 33,800 -6,180 Descending Washington Center
04:05PM 38.4244 -79.8719 72° East 508 585 24,000 -2,940 Descending Washington Center
04:06PM 38.4636 -79.7072 73° East 497 572 28,100 780 Climbing Washington Center
04:07PM 38.5003 -79.5394 74° East 486 559 25,600 -2,040 Descending Washington Center
04:08PM 38.5344 -79.3897 74° East 469 540 24,000 -840 Descending Washington Center
04:09PM 38.5550 -79.2661 78° East 419 482 24,000 -660 Level Washington Center
04:10PM 38.5781 -79.1239 78° East 408 470 22,700 -1,680 Descending Washington Center
04:11PM 38.6008 -78.9842 78° East 408 470 20,600 -2,100 Descending Washington Center
04:12PM 38.6233 -78.8497 78° East 396 456 18,500 -2,100 Descending Washington Center
04:13PM 38.6517 -78.7233 74° East 382 440 16,500 -1,920 Descending Washington Center
04:14PM 38.6797 -78.6022 73° East 365 420 14,700 -1,920 Descending Washington Center
04:15PM 38.7056 -78.4833 74° East 352 405 12,800 -1,860 Descending Washington Center
04:16PM 38.7331 -78.3753 72° East 333 383 11,100 -1,440 Descending Washington Center
04:17PM 38.7892 -78.2975 47° Northeast 299 344 10,000 -960 Descending Washington Center
04:18PM 38.8450 -78.2197 47° Northeast 299 344 9,200 -1,080 Descending Washington Center
04:19PM 38.8764 -78.1222 68° East 288 331 7,900 -1,200 Descending Washington Center
04:20PM 38.8992 -78.0269 73° East 283 326 6,800 -1,020 Descending Washington Center
04:21PM 38.9219 -77.9342 72° East 272 313 6,000 -420 Descending Washington Center
04:22PM 38.9489 -77.8311 71° East 266 306 6,000  Level Washington Center
04:23PM 38.9611 -77.7300 81° East 278 320 6,000  Level Washington Center
04:24PM 39.0000 -77.5833 71° East 269 310 6,000  Level Potomac TRACON
04:25PM 39.0500 -77.5667 15° North 235 270 6,000 -600 Level Potomac TRACON
04:26PM 39.1167 -77.5500 11° North 233 268 4,900 -1,380 Descending Potomac TRACON
04:27PM 39.1167 -77.4833 90° East 203 234 3,300 -1,440 Descending Potomac TRACON
04:28PM 39.0833 -77.4333 131° Southeast 179 206 2,100 -780 Descending Potomac TRACON
04:29PM 39.0333 -77.4333 180° South 169 194 1,800 -600 Descending Potomac TRACON
04:30PM 38.9833 -77.4333 180° South 141 162 1,000 -840 Descending Potomac TRACON
04:32PM 38.9474 -77.4599 165° South  Level Estimated
04:39PM 38.9474 -77.4599 165° South  Level Estimated
04:40PM 38.9474 -77.4599 165° South  Level Estimated